Vorticity
5 4 2 5 9 25 25 26 5 19 1 -5 6 20 18 14 7 -2 4 -1 14 12 12 9 13 15 14 13 13 14 6 7 7 8 9 9 9 9 11 10 6 11 15 21
4 6 3 2 5 9 19 43 16 12 11 6 3 6 8 10 10 14 15 14 16 15 13 8 11 10 9 12 11 8 7 8 12 9 12 7 7 13 15 13 10 15 12 16
3 4 6 3 2 5 10 22 49 17 16 8 3 7 8 8 10 11 13 13 11 7 8 9 15 17 11 8 6 8 9 8 7 3 6 5 6 11 15 10 9 6 22 12
6 4 3 7 4 2 1 5 13 36 23 12 10 8 5 7 4 8 11 12 11 9 6 16 20 9 5 7 8 7 10 7 6 3 4 3 5 8 16 6 10 17 14 8
5 6 4 4 5 5 4 2 5 18 41 31 17 12 17 12 3 6 12 9 4 4 9 4 4 6 9 5 2 5 1 6 6 4 7 3 5 13 16 10 8 13 16 12
4 4 6 6 3 5 6 2 0 2 6 34 30 18 16 14 14 14 5 4 3 0 2 1 1 4 3 2 3 1 1 4 11 5 6 4 9 13 22 7 11 10 5 11
1 6 4 7 7 6 5 5 3 1 -1 6 29 24 17 19 12 14 11 9 3 1 0 1 1 -2 -2 1 0 6 6 8 12 8 7 5 13 15 18 11 6 14 15 8
2 2 6 5 7 7 6 6 4 3 2 -0 2 18 23 17 13 11 10 10 9 8 4 7 5 -1 10 22 20 16 13 12 10 8 13 16 13 5 18 4 18 8 6 5
2 1 5 4 5 7 8 7 7 4 3 4 2 1 7 23 24 6 4 2 15 24 25 27 28 25 23 14 18 24 24 21 22 22 22 16 14 11 17 16 23 8 -24 22
7 4 2 4 4 6 6 6 8 7 3 4 5 4 3 2 6 15 18 18 12 11 10 11 10 5 5 8 7 8 10 9 16 26 30 29 16 14 21 19 7 33 31 31
9 8 4 1 4 3 6 5 6 8 8 6 3 6 5 3 2 2 3 3 4 7 7 4 7 7 6 5 6 6 8 9 8 6 9 11 25 28 32 25 13 11 10 10
9 10 10 4 2 2 3 6 5 6 6 7 7 6 5 7 5 3 3 2 2 2 1 3 6 8 7 10 9 8 8 11 13 10 5 7 10 7 6 9 7 8 10 9
1 6 9 10 7 2 4 3 4 5 5 6 6 6 6 7 6 5 5 4 3 4 3 4 5 5 4 7 5 6 6 7 7 9 7 7 8 9 9 10 9 9 8 4
4 1 3 7 11 11 6 3 3 4 5 6 5 5 5 4 5 7 7 6 6 6 6 5 4 5 5 5 5 5 5 4 3 3 2 3 3 1 2 2 3 4 4 3
17 4 2 3 1 9 12 11 4 3 4 2 6 4 5 5 4 4 5 5 6 7 7 6 5 6 6 5 4 3 5 4 3 3 4 3 4 3 3 3 3 2 1 2
6 14 12 9 0 2 5 11 12 11 5 3 5 5 5 4 6 6 6 5 5 6 5 5 6 8 9 6 6 7 5 3 2 3 3 3 4 4 4 5 5 5 3 5
6 8 8 11 13 8 -0 2 4 12 14 9 4 4 4 4 5 6 6 6 6 4 4 5 8 10 9 6 8 11 9 6 7 7 4 3 4 3 2 2 2 2 3 4
2 4 10 8 12 12 12 8 5 4 5 10 14 11 6 4 5 5 5 5 7 7 8 7 6 6 2 5 8 11 12 11 13 10 6 5 6 8 8 3 1 1 4 4
16 10 6 4 4 8 8 9 15 7 3 3 3 11 15 12 6 6 7 6 7 8 9 8 10 9 7 7 6 4 4 13 16 11 8 8 12 13 9 7 8 11 9 6
8 11 16 3 6 2 5 9 14 17 24 18 2 5 4 13 16 12 7 7 5 6 6 4 5 7 6 7 7 5 4 6 5 11 13 17 12 8 10 17 17 12 8 7
6 5 15 18 5 6 10 5 7 11 9 20 28 5 -1 5 8 12 14 18 15 13 15 13 17 16 15 14 11 7 7 6 4 5 6 3 10 14 9 8 10 14 14 12
5 3 4 7 15 6 11 14 -1 8 11 19 22 17 8 6 -1 3 5 7 9 10 7 7 6 3 5 7 9 15 12 13 16 11 5 5 8 7 6 11 9 5 7 10
10 10 8 -2 -4 2 3 22 8 -6 0 9 11 7 9 7 12 9 3 6 5 4 4 6 12 13 14 9 3 2 0 4 6 7 11 13 10 7 6 9 5 6 8 5
7 13 14 7 3 8 8 23 6 11 3 16 13 12 17 11 9 6 8 4 7 12 19 13 27 22 29 36 31 32 29 22 19 28 35 18 7 11 13 11 8 7 8 6
8 7 1 12 10 16 11 8 21 21 -0 10 12 10 10 11 13 17 11 14 24 29 20 15 8 -1 -2 2 11 8 2 10 14 1 3 19 32 25 11 11 13 13 14 12
19 9 9 9 9 9 9 13 21 20 8 1 7 3 5 6 15 17 39 28 4 7 3 -1 1 4 3 3 10 9 9 9 10 10 9 6 3 6 9 11 13 15 16 12
1 10 11 13 9 5 8 12 11 16 30 -3 6 3 6 11 11 10 -8 0 4 4 5 2 0 2 8 7 5 5 8 4 -1 -3 -4 -3 -5 -5 -4 -3 -3 1 5 3
Height
5687 5678 5668 5660 5649 5639 5631 5624 5623 5621 5619 5617 5615 5617 5618 5619 5622 5625 5627 5629 5630 5632 5634 5635 5635 5636 5638 5640 5642 5643 5644 5644 5643 5643 5641 5639 5636 5633 5630 5628 5627 5623 5624 5625
5697 5691 5682 5673 5664 5653 5643 5636 5631 5631 5629 5627 5628 5628 5629 5630 5630 5631 5632 5634 5636 5637 5639 5640 5640 5641 5642 5644 5646 5647 5647 5647 5646 5645 5644 5642 5639 5635 5632 5630 5627 5627 5627 5628
5705 5700 5693 5686 5676 5668 5659 5649 5644 5639 5638 5637 5636 5636 5636 5637 5637 5639 5639 5641 5643 5644 5645 5645 5645 5646 5647 5649 5650 5650 5651 5650 5648 5648 5646 5644 5642 5639 5635 5631 5630 5630 5630 5630
5713 5706 5702 5696 5689 5681 5674 5665 5657 5650 5646 5645 5644 5644 5644 5644 5644 5645 5647 5648 5649 5649 5650 5650 5650 5652 5653 5653 5653 5652 5652 5651 5651 5650 5648 5646 5644 5642 5638 5637 5635 5635 5635 5634
5722 5714 5708 5703 5698 5693 5687 5679 5672 5663 5656 5653 5651 5651 5651 5651 5651 5651 5653 5654 5655 5654 5655 5656 5656 5657 5658 5657 5656 5655 5655 5654 5654 5652 5650 5649 5647 5645 5643 5641 5640 5639 5638 5638
5728 5722 5715 5710 5706 5702 5696 5692 5684 5678 5672 5664 5660 5658 5657 5657 5657 5658 5658 5658 5658 5659 5660 5660 5660 5660 5661 5660 5659 5658 5657 5655 5654 5654 5652 5651 5651 5648 5648 5645 5645 5645 5644 5643
5732 5728 5722 5717 5712 5708 5705 5700 5696 5690 5684 5679 5674 5668 5665 5664 5664 5665 5665 5665 5665 5665 5665 5665 5665 5664 5664 5663 5662 5661 5659 5657 5655 5654 5655 5654 5652 5651 5651 5650 5650 5650 5648 5646
5734 5731 5728 5722 5718 5714 5710 5707 5704 5700 5696 5690 5685 5682 5678 5675 5673 5670 5670 5670 5669 5669 5669 5669 5669 5668 5666 5664 5663 5661 5659 5658 5656 5654 5653 5655 5654 5654 5655 5655 5655 5655 5654 5652
5733 5732 5730 5726 5721 5718 5714 5711 5709 5706 5703 5700 5695 5691 5688 5686 5684 5682 5679 5678 5676 5675 5674 5673 5672 5671 5669 5668 5666 5664 5662 5660 5658 5656 5656 5655 5656 5656 5657 5658 5659 5659 5657 5656
5730 5729 5730 5727 5725 5722 5719 5715 5712 5709 5707 5705 5703 5699 5697 5694 5691 5689 5688 5687 5685 5682 5681 5679 5678 5676 5675 5673 5671 5670 5668 5666 5664 5662 5660 5660 5660 5660 5660 5662 5666 5662 5660 5657
5726 5727 5726 5726 5723 5721 5721 5719 5715 5713 5710 5708 5706 5705 5703 5700 5698 5697 5695 5693 5691 5689 5688 5686 5684 5683 5682 5680 5678 5677 5675 5673 5671 5670 5667 5667 5667 5667 5668 5669 5667 5667 5667 5666
5721 5722 5722 5722 5722 5720 5718 5718 5717 5715 5713 5711 5709 5707 5705 5704 5702 5700 5699 5698 5696 5694 5693 5691 5689 5688 5687 5685 5684 5683 5682 5680 5678 5677 5676 5675 5674 5674 5674 5674 5674 5673 5672 5671
5716 5716 5717 5717 5718 5716 5716 5713 5713 5713 5712 5711 5709 5707 5706 5705 5704 5703 5702 5701 5699 5698 5697 5696 5694 5692 5691 5690 5689 5687 5686 5685 5684 5683 5682 5681 5681 5680 5678 5678 5678 5677 5676 5676
5711 5710 5711 5711 5713 5713 5712 5711 5709 5710 5710 5708 5709 5708 5707 5705 5704 5704 5702 5701 5700 5699 5698 5697 5696 5695 5694 5693 5692 5690 5689 5688 5687 5686 5685 5685 5684 5684 5683 5683 5682 5681 5680 5680
5705 5704 5703 5706 5706 5708 5707 5705 5705 5705 5707 5707 5706 5704 5704 5704 5703 5703 5702 5700 5699 5699 5698 5697 5696 5695 5694 5693 5692 5692 5691 5690 5689 5688 5687 5686 5686 5685 5685 5684 5684 5684 5683 5683
5698 5697 5695 5696 5699 5701 5703 5701 5700 5698 5698 5699 5701 5702 5700 5700 5700 5700 5699 5698 5697 5697 5696 5695 5695 5694 5693 5691 5690 5691 5690 5690 5689 5689 5688 5687 5686 5686 5685 5684 5683 5682 5682 5681
5689 5691 5689 5688 5689 5691 5694 5697 5695 5694 5692 5692 5693 5695 5696 5695 5694 5695 5695 5694 5694 5694 5693 5692 5692 5691 5689 5689 5689 5689 5688 5687 5686 5686 5686 5685 5685 5684 5683 5683 5682 5681 5680 5679
5681 5681 5683 5682 5682 5681 5683 5685 5686 5688 5687 5687 5687 5688 5689 5690 5689 5689 5688 5688 5689 5690 5689 5688 5687 5686 5684 5685 5684 5684 5683 5682 5682 5682 5681 5680 5680 5679 5679 5678 5677 5676 5676 5675
5671 5672 5672 5673 5676 5675 5672 5672 5674 5677 5680 5680 5682 5679 5679 5681 5683 5682 5682 5681 5681 5684 5683 5682 5683 5683 5679 5679 5678 5677 5677 5676 5675 5675 5674 5674 5673 5673 5672 5672 5671 5670 5669 5668
5657 5660 5662 5664 5667 5666 5665 5664 5666 5665 5668 5671 5675 5669 5671 5672 5673 5675 5675 5674 5673 5674 5677 5674 5676 5676 5673 5672 5671 5670 5670 5669 5669 5668 5666 5667 5665 5664 5664 5664 5663 5662 5661 5660
5641 5644 5649 5652 5654 5655 5656 5654 5662 5660 5660 5662 5663 5662 5662 5662 5663 5665 5664 5665 5664 5666 5669 5665 5668 5666 5664 5663 5663 5661 5660 5661 5661 5660 5660 5658 5658 5657 5656 5655 5653 5653 5651 5651
5626 5630 5633 5638 5641 5643 5644 5647 5654 5652 5650 5653 5651 5650 5650 5652 5652 5653 5655 5655 5656 5657 5659 5659 5660 5658 5656 5655 5654 5653 5653 5653 5653 5652 5651 5650 5649 5649 5649 5647 5644 5643 5642 5641
5610 5615 5619 5622 5627 5629 5632 5640 5644 5644 5640 5640 5639 5639 5639 5641 5642 5643 5644 5644 5646 5648 5648 5650 5649 5644 5644 5645 5645 5645 5644 5642 5642 5641 5640 5640 5639 5638 5637 5637 5635 5633 5632 5630
5595 5599 5603 5607 5612 5617 5624 5628 5630 5631 5632 5629 5629 5630 5631 5631 5631 5631 5633 5633 5635 5636 5638 5638 5634 5633 5633 5634 5635 5635 5634 5634 5633 5632 5629 5628 5628 5628 5627 5626 5624 5623 5620 5617
5576 5581 5587 5597 5601 5606 5610 5613 5615 5615 5619 5619 5620 5621 5622 5620 5619 5620 5621 5622 5625 5627 5627 5625 5625 5627 5628 5628 5628 5627 5627 5626 5625 5624 5621 5619 5617 5616 5614 5612 5611 5609 5607 5605
5555 5567 5579 5586 5590 5594 5595 5597 5601 5602 5604 5609 5610 5610 5609 5611 5610 5611 5614 5616 5617 5615 5613 5616 5617 5616 5617 5618 5618 5618 5616 5615 5614 5613 5611 5609 5606 5603 5601 5598 5595 5593 5591 5588
5543 5559 5568 5573 5577 5578 5582 5584 5586 5589 5592 5596 5597 5597 5600 5601 5602 5605 5609 5610 5606 5603 5601 5600 5602 5608 5609 5607 5605 5605 5604 5602 5598 5596 5595 5593 5591 5588 5586 5582 5579 5575 5571 5569